FW3806 Weather Reports


Display with metric or nautical units.
time (UTC)temp
F
wind
direction
speed
MPH
gust
MPH
rain 1hr
in
rain 24hr
in
rain mn
in
humidity
%
barometer
mb
20260510234538 98 92 0.0 7.0 0.00 0.00 0.00 6 1007.7
20260510233042 97 145 3.0 8.0 0.00 0.00 0.00 6 1007.7
20260510231537 97 168 0.0 3.0 0.00 0.00 0.00 6 1007.8
20260510230038 96 135 5.0 12.0 0.00 0.00 0.00 6 1008.0
20260510224536 96 105 0.0 5.0 0.00 0.00 0.00 6 1008.2
20260510223036 97 139 6.0 12.0 0.00 0.00 0.00 6 1008.5
20260510221535 96 161 4.0 10.0 0.00 0.00 0.00 6 1008.7
20260510220033 96 156 5.0 11.0 0.00 0.00 0.00 6 1008.9
20260510214532 95 159 0.0 11.0 0.00 0.00 0.00 6 1009.1
20260510213032 95 170 4.0 9.0 0.00 0.00 0.00 6 1009.3
20260510211531 96 91 3.0 11.0 0.00 0.00 0.00 5 1009.5
20260510210028 95 191 5.0 11.0 0.00 0.00 0.00 6 1009.7
20260510204535 94 96 2.0 13.0 0.00 0.00 0.00 6 1009.9
20260510203026 94 117 6.0 12.0 0.00 0.00 0.00 6 1010.0
20260510201526 94 94 5.0 9.0 0.00 0.00 0.00 6 1010.2
20260510200025 93 127 6.0 13.0 0.00 0.00 0.00 6 1010.3
20260510194526 94 199 3.0 9.0 0.00 0.00 0.00 6 1010.3
20260510193022 93 117 5.0 11.0 0.00 0.00 0.00 6 1010.5
20260510191522 93 134 5.0 12.0 0.00 0.00 0.00 6 1010.6
20260510190031 92 153 3.0 13.0 0.00 0.00 0.00 6 1010.7
20260510184520 92 81 11.0 16.0 0.00 0.00 0.00 6 1010.9
20260510183019 93 162 5.0 9.0 0.00 0.00 0.00 7 1010.9
20260510181516 92 140 5.0 8.0 0.00 0.00 0.00 7 1011.2
20260510180014 91 99 4.0 11.0 0.00 0.00 0.00 7 1011.2
20260510174513 90 85 3.0 9.0 0.00 0.00 0.00 7 1011.2
20260510173012 90 167 3.0 9.0 0.00 0.00 0.00 7 1011.3
20260510171510 89 118 4.0 7.0 0.00 0.00 0.00 7 1011.3
20260510170008 88 121 3.0 7.0 0.00 0.00 0.00 8 1011.2
20260510164520 89 204 0.0 4.0 0.00 0.00 0.00 8 1011.2
20260510163005 87 71 0.0 5.0 0.00 0.00 0.00 8 1011.2
20260510161502 86 319 1.0 6.0 0.00 0.00 0.00 9 1011.1
20260510160002 85 264 1.0 6.0 0.00 0.00 0.00 10 1011.1
20260510154602 84 300 3.0 6.0 0.00 0.00 0.00 10 1011.1
20260510153103 82 295 3.0 8.0 0.00 0.00 0.00 11 1011.1
20260510151600 80 300 2.0 9.0 0.00 0.00 0.00 11 1011.1
20260510150124 78 316 5.0 10.0 0.00 0.00 0.00 12 1011.0
20260510144557 78 304 3.0 9.0 0.00 0.00 0.00 12 1010.9
20260510143058 77 260 3.0 9.0 0.00 0.00 0.00 12 1010.8
20260510141555 76 358 4.0 11.0 0.00 0.00 0.00 12 1010.6
20260510140053 76 308 4.0 8.0 0.00 0.00 0.00 12 1010.5
20260510134551 75 309 3.0 8.0 0.00 0.00 0.00 12 1010.3
20260510133048 74 306 4.0 10.0 0.00 0.00 0.00 12 1010.0
20260510131546 75 311 3.0 10.0 0.00 0.00 0.00 12 1009.9
20260510130044 75 307 2.0 12.0 0.00 0.00 0.00 11 1009.6
20260510124541 76 282 5.0 11.0 0.00 0.00 0.00 11 1009.4
20260510123037 76 347 4.0 11.0 0.00 0.00 0.00 11 1009.1
20260510121537 77 291 4.0 10.0 0.00 0.00 0.00 11 1008.9
20260510120031 77 278 5.0 11.0 0.00 0.00 0.00 11 1008.6
20260510114529 78 307 3.0 10.0 0.00 0.00 0.00 11 1008.7
20260510113026 78 276 4.0 11.0 0.00 0.00 0.00 11 1008.5
20260510111526 78 290 4.0 10.0 0.00 0.00 0.00 11 1008.4
20260510110023 78 308 3.0 8.0 0.00 0.00 0.00 12 1008.3
20260510104520 79 314 3.0 11.0 0.00 0.00 0.00 12 1008.1
20260510103019 79 295 4.0 8.0 0.00 0.00 0.00 12 1007.9
20260510101518 79 278 4.0 9.0 0.00 0.00 0.00 11 1007.8
20260510100016 79 293 4.0 8.0 0.00 0.00 0.00 12 1007.6
20260510094533 79 272 3.0 10.0 0.00 0.00 0.00 13 1007.5
20260510093012 78 297 3.0 8.0 0.00 0.00 0.00 13 1007.5
20260510091509 79 271 4.0 8.0 0.00 0.00 0.00 12 1007.2
20260510090007 80 300 2.0 7.0 0.00 0.00 0.00 12 1007.2
20260510084512 81 286 2.0 8.0 0.00 0.00 0.00 12 1007.0
20260510083002 84 281 5.0 12.0 0.00 0.00 0.00 8 1006.8
20260510081504 84 293 4.0 9.0 0.00 0.00 0.00 8 1006.7
20260510080105 83 313 4.0 9.0 0.00 0.00 0.00 10 1006.7
20260510074600 81 281 5.0 10.0 0.00 0.00 0.00 12 1006.8
20260510073058 83 329 4.0 8.0 0.00 0.00 0.00 11 1006.9
20260510071552 85 291 2.0 8.0 0.00 0.00 0.00 10 1006.7
20260510070049 85 281 4.0 8.0 0.00 0.00 0.00 10 1006.5
20260510064558 86 307 4.0 10.0 0.00 0.00 0.00 10 1006.5
20260510063048 84 299 4.0 11.0 0.00 0.00 0.00 10 1006.3
20260510061547 82 296 3.0 7.0 0.00 0.00 0.00 12 1006.1
20260510060046 83 312 1.0 5.0 0.00 0.00 0.00 12 1006.1
20260510054545 83 288 3.0 8.0 0.00 0.00 0.00 11 1006.0
20260510053045 83 286 2.0 11.0 0.00 0.00 0.00 12 1005.8
20260510051547 84 299 0.0 4.0 0.00 0.00 0.00 12 1005.7
20260510050048 84 321 0.0 4.0 0.00 0.00 0.00 12 1005.6
20260510044547 86 295 1.0 4.0 0.00 0.00 0.00 11 1005.5
20260510043045 86 321 1.0 5.0 0.00 0.00 0.00 11 1005.5
20260510041543 87 302 0.0 2.0 0.00 0.00 0.00 11 1005.0
20260510040041 87 321 3.0 5.0 0.00 0.00 0.00 10 1004.9
20260510034542 88 342 1.0 2.0 0.00 0.00 0.00 11 1004.7
20260510033040 90 95 2.0 6.0 0.00 0.00 0.00 10 1004.4
20260510031540 91 89 4.0 8.0 0.00 0.00 0.00 9 1004.1
20260510030050 92 42 2.0 6.0 0.00 0.00 0.00 9 1004.0
20260510024540 92 330 2.0 4.0 0.00 0.00 0.00 8 1003.8
20260510023038 93 349 0.0 3.0 0.00 0.00 0.00 8 1003.7
20260510021538 95 311 1.0 7.0 0.00 0.00 0.00 7 1003.4
20260510020037 96 313 4.0 10.0 0.00 0.00 0.00 7 1003.5
20260510014536 97 311 1.0 5.0 0.00 0.00 0.00 6 1003.4
20260510013036 97 311 3.0 5.0 0.00 0.00 0.00 6 1003.4
20260510011540 97 231 0.0 6.0 0.00 0.00 0.00 6 1003.4
20260510010035 97 282 4.0 10.0 0.00 0.00 0.00 7 1003.3
20260510004535 97 308 3.0 7.0 0.00 0.00 0.00 8 1003.4
20260510003039 98 129 0.0 5.0 0.00 0.00 0.00 7 1003.5
20260510001532 97 302 0.0 10.0 0.00 0.00 0.00 8 1003.4
20260510000031 98 207 1.0 7.0 0.00 0.00 0.00 8 1003.5